Zurück zum Katalog

STARLINK-35295

AktivKommunikationVLEO
NORAD 66070·PAYLOAD·🇺🇸 United States

Gestartet Oct 19, 2025 von Cape Canaveral Space Force Station

Loading…

Nächste Überflüge (nächste 24 Stunden)

TLE

AktuellSource: CelesTrak SupGP

Epoche: Sep 14, 2026, 21:15 UTC

1 66070C 25235N   26257.88590278 -.00013051  00000+0 -38570-3 0  2579
2 66070  53.1589  86.1490 0001266  91.1043 239.4010 15.34389290    17

Verfolge STARLINK-35295 in Echtzeit mit AllMySat

Download on the App Store